CYGL

La Grande Riviere Airport

ICAO Code CYGL
IATA Code YGL
Name La Grande Riviere Airport
Location La Grande Riviere, Quebec, CA
Elevation 640 Feet / 195.1 Meters
Latitude 53.62527778
Longitude -77.70416667
METAR CYGL 182200Z 21003KT 15SM SCT090 SCT240 27/09 A2985 RMK AC3CI1 SLP112 DENSITY ALT 2300FT
Extra information Display NOTAMS
Display Charts
Runway Length Width Surface Elevation
13 6487 ft 150 ft ASP 595 ft
31 6487 ft 150 ft ASP 640 ft

Mandatory Routes

La Grande Riviere Airport

Direction Destination Level Remark Type Route
DEP TO CYUL H&L RNAV OBRET